Location: Vinland
(47.7731°N, 122.6974°W)
Time: 10:17:05
(UTC+00:00)

Vanguard 1 Rocket - All Passes

Search period start: 29 March 2023 00:00
Search period end: 08 April 2023 00:00
Orbit: 652 x 4223 km, 34.3° (Epoch: 28 March)

Date Brightness Start Highest point End Pass type
(mag) Time Alt. Az. Time Alt. Az. Time Alt. Az.
29 Mar - 03:42:38 10° SSW 04:01:55 28° SE 04:17:22 10° E visible
29 Mar - 06:08:18 10° SW 06:30:50 46° SSE 06:45:04 10° E visible
29 Mar - 08:39:36 10° WSW 08:58:58 48° S 09:09:35 10° ESE visible
29 Mar - 11:12:40 10° W 11:24:18 27° SW 11:31:28 10° SSE visible
30 Mar - 02:33:14 10° S 02:48:41 20° SE 03:02:30 10° E visible
30 Mar - 04:54:43 10° SW 05:17:12 41° SSE 05:33:12 10° E visible
30 Mar - 07:24:13 10° WSW 07:46:11 51° S 07:58:53 10° ESE visible
30 Mar - 09:56:57 10° W 10:13:03 39° SSW 10:22:06 10° SE visible
30 Mar - 12:32:20 10° WSW 12:36:39 13° SW 12:40:10 10° SSW visible
31 Mar - 01:29:28 10° SE 01:35:53 11° SE 01:42:09 10° ESE daylight
31 Mar - 03:42:29 10° SSW 04:03:30 34° SSE 04:20:27 10° E visible
31 Mar - 06:09:23 10° SW 06:32:48 50° S 06:47:40 10° E visible
31 Mar - 08:41:14 10° W 09:01:02 47° SSW 09:12:02 10° SE visible
31 Mar - 11:14:56 10° W 11:26:08 24° SW 11:33:19 10° S visible
01 Apr - 02:32:01 10° S 02:50:02 25° SE 03:06:19 10° E visible
01 Apr - 04:55:30 10° SW 05:18:58 45° SSE 05:35:50 10° E visible
01 Apr - 07:25:41 10° WSW 07:48:13 52° S 08:01:23 10° ESE visible
01 Apr - 09:58:50 10° W 10:14:58 36° SSW 10:24:18 10° SSE visible
02 Apr - 01:24:31 10° SSE 01:37:04 16° SE 01:49:23 10° E daylight
02 Apr - 03:42:50 10° SSW 04:05:03 39° SSE 04:23:14 10° E visible
02 Apr - 06:10:41 10° WSW 06:34:43 53° S 06:50:11 10° ESE visible
02 Apr - 08:42:56 10° W 09:03:00 46° SSW 09:14:23 10° SE visible
02 Apr - 11:17:25 10° W 11:27:48 21° SW 11:34:51 10° S visible
03 Apr - 02:31:40 10° SSW 02:51:22 30° SE 03:09:30 10° E visible
03 Apr - 04:56:33 10° SW 05:20:43 50° SSE 05:38:22 10° E visible
03 Apr - 07:27:16 10° WSW 07:50:11 52° S 08:03:49 10° ESE visible
03 Apr - 10:00:48 10° W 10:16:44 33° SW 10:26:18 10° SSE visible
04 Apr - 01:22:38 10° S 01:38:13 21° SE 01:53:51 10° E daylight
04 Apr - 03:43:35 10° SW 04:06:35 44° SSE 04:25:50 10° E visible
04 Apr - 06:12:08 10° WSW 06:36:35 55° S 06:52:38 10° ESE visible
04 Apr - 08:44:41 10° W 09:04:51 44° SSW 09:16:37 10° SE visible
04 Apr - 11:20:15 10° W 11:29:20 17° SW 11:35:56 10° SSW visible
05 Apr - 00:18:45 10° SE 00:25:46 12° ESE 00:32:58 10° ESE daylight
05 Apr - 02:31:57 10° SSW 02:52:40 35° SE 03:12:18 10° E visible
05 Apr - 04:57:51 10° SW 05:22:27 53° SSE 05:40:49 10° E visible
05 Apr - 07:28:55 10° W 07:52:04 52° SSW 08:06:09 10° SE visible
05 Apr - 10:02:53 10° W 10:18:22 29° SW 10:28:05 10° SSE visible
06 Apr - 01:22:00 10° S 01:39:20 26° SE 01:57:19 10° E daylight
06 Apr - 03:44:39 10° SW 04:08:07 48° SSE 04:28:17 10° E visible
06 Apr - 06:13:43 10° WSW 06:38:26 56° S 06:55:00 10° ESE visible
06 Apr - 08:46:30 10° W 09:06:35 40° SSW 09:18:41 10° SSE visible
06 Apr - 11:23:49 10° W 11:30:43 14° WSW 11:36:12 10° SSW visible
07 Apr - 00:14:54 10° SSE 00:26:43 16° SE 00:39:27 10° E daylight
07 Apr - 02:32:41 10° SSW 02:54:00 40° SSE 03:14:52 10° E visible
07 Apr - 04:59:21 10° WSW 05:24:11 55° S 05:43:11 10° ESE visible
07 Apr - 07:30:39 10° W 07:53:51 50° SSW 08:08:22 10° SE visible
07 Apr - 10:05:10 10° W 10:19:50 25° SW 10:29:34 10° S visible
